Volver al catálogo

STEP 2

ActivoCienciaPO
NORAD 23105·PAYLOAD·🇺🇸 United States

Lanzado May 19, 1994 desde Vandenberg Space Force Base

Loading…

Próximos Pases (próximas 24 horas)

TLE

ActualizadoSource: Space-Track

Época: Sep 14, 2026, 12:07 UTC

1 23105U 94029A   26257.50552019  .00001743  00000-0  16304-3 0  9996
2 23105  81.9344  82.6514 0081045 326.4029  33.2063 14.91088315733192

Sigue STEP 2 en tiempo real con AllMySat

Download on the App Store